When you browse on this site, cookies collect data to enhance your experience and personalize the content and advertising you see.
Visit our Privacy Policy to learn more. By continuing to use the site, you agree to this use of cookies and data.
  • In Lithuania
  • List of Countries
  • For 7 days
  • Water Temperature
  • Satellite Maps
  • Weather Map
  • Weather Widgets
  • user-avatar
    Login

    Hourly Weather Musajid

    Today, 22 May, Wednesday

    Time Temperature Precipitation Wind Pressure Humidity
    00:00 +34°C° 0 mm 2 mps 757 mmHg 44%
    01:00 +34°C° 0 mm 2 mps 757 mmHg 44%
    02:00 +34°C° 0 mm 3 mps 757 mmHg 43%
    03:00 +34°C° 0 mm 3 mps 757 mmHg 44%
    04:00 +34°C° 0 mm 3 mps 757 mmHg 43%
    05:00 +34°C° 0 mm 3 mps 757 mmHg 43%
    06:00 +34°C° 0 mm 4 mps 757 mmHg 42%
    07:00 +36°C° 0 mm 4 mps 758 mmHg 38%
    08:00 +37°C° 0 mm 4 mps 758 mmHg 35%
    09:00 +39°C° 0 mm 3 mps 758 mmHg 31%
    10:00 +40°C° 0 mm 3 mps 758 mmHg 28%
    11:00 +40°C° 0 mm 2 mps 757 mmHg 25%
    12:00 +41°C° 0 mm 2 mps 757 mmHg 22%
    13:00 +41°C° 0 mm 2 mps 757 mmHg 22%
    14:00 +42°C° 0 mm 3 mps 756 mmHg 23%
    15:00 +42°C° 0 mm 3 mps 756 mmHg 23%
    16:00 +41°C° 0 mm 4 mps 756 mmHg 28%
    17:00 +38°C° 0 mm 4 mps 756 mmHg 33%
    18:00 +37°C° 0 mm 4 mps 756 mmHg 37%
    19:00 +37°C° 0 mm 3 mps 756 mmHg 38%
    20:00 +36°C° 0 mm 3 mps 756 mmHg 39%
    21:00 +35°C° 0 mm 2 mps 757 mmHg 39%
    22:00 +35°C° 0 mm 2 mps 756 mmHg 38%
    23:00 +35°C° 0 mm 2 mps 756 mmHg 37%

    Tomorrow, 23 May, Thursday

    Time Temperature Precipitation Wind Pressure Humidity
    00:00 +34°C° 0 mm 2 mps 756 mmHg 36%
    01:00 +34°C° 0 mm 2 mps 756 mmHg 34%
    02:00 +34°C° 0 mm 3 mps 756 mmHg 33%
    03:00 +34°C° 0 mm 3 mps 756 mmHg 31%
    04:00 +34°C° 0 mm 3 mps 756 mmHg 30%
    05:00 +34°C° 0 mm 4 mps 756 mmHg 28%
    06:00 +35°C° 0 mm 4 mps 756 mmHg 26%
    07:00 +37°C° 0 mm 4 mps 756 mmHg 23%
    08:00 +38°C° 0 mm 3 mps 756 mmHg 20%
    09:00 +40°C° 0 mm 3 mps 756 mmHg 17%
    10:00 +42°C° 0 mm 3 mps 756 mmHg 16%
    11:00 +43°C° 0 mm 3 mps 756 mmHg 15%
    12:00 +43°C° 0 mm 3 mps 756 mmHg 15%
    13:00 +43°C° 0 mm 3 mps 756 mmHg 15%
    14:00 +43°C° 0 mm 3 mps 755 mmHg 15%
    15:00 +44°C° 0 mm 3 mps 755 mmHg 15%
    16:00 +42°C° 0 mm 4 mps 755 mmHg 18%
    17:00 +41°C° 0 mm 4 mps 754 mmHg 21%
    18:00 +40°C° 0 mm 4 mps 754 mmHg 24%
    19:00 +38°C° 0 mm 3 mps 755 mmHg 27%
    20:00 +36°C° 0 mm 3 mps 755 mmHg 31%
    21:00 +35°C° 0 mm 2 mps 755 mmHg 35%
    22:00 +35°C° 0 mm 2 mps 755 mmHg 36%
    23:00 +33°C° 0 mm 1 mps 755 mmHg 37%

    Day after tomorrow, 24 May, Friday

    Time Temperature Precipitation Wind Pressure Humidity
    00:00 +31°C° 0 mm 0 mps 755 mmHg 38%
    01:00 +33°C° 0 mm 1 mps 755 mmHg 36%
    02:00 +33°C° 0 mm 1 mps 755 mmHg 34%
    03:00 +34°C° 0 mm 2 mps 755 mmHg 32%
    04:00 +34°C° 0 mm 2 mps 755 mmHg 31%
    05:00 +34°C° 0 mm 2 mps 755 mmHg 30%
    06:00 +34°C° 0 mm 2 mps 755 mmHg 29%
    07:00 +36°C° 0 mm 2 mps 756 mmHg 27%
    08:00 +37°C° 0 mm 2 mps 756 mmHg 25%
    09:00 +39°C° 0 mm 1 mps 757 mmHg 22%
    10:00 +40°C° 0 mm 1 mps 756 mmHg 21%
    11:00 +41°C° 0 mm 2 mps 756 mmHg 20%
    12:00 +42°C° 0 mm 2 mps 756 mmHg 18%
    13:00 +43°C° 0 mm 3 mps 755 mmHg 19%
    14:00 +42°C° 0 mm 3 mps 755 mmHg 19%
    15:00 +42°C° 0 mm 4 mps 755 mmHg 19%
    16:00 +41°C° 0 mm 4 mps 755 mmHg 22%
    17:00 +40°C° 0 mm 4 mps 755 mmHg 25%
    18:00 +37°C° 0 mm 4 mps 755 mmHg 28%
    19:00 +37°C° 0 mm 4 mps 755 mmHg 29%
    20:00 +36°C° 0 mm 4 mps 756 mmHg 31%
    21:00 +35°C° 0 mm 3 mps 756 mmHg 33%
    22:00 +35°C° 0 mm 3 mps 756 mmHg 34%
    23:00 +34°C° 0 mm 2 mps 755 mmHg 35%

    25 May, Saturday

    Time Temperature Precipitation Wind Pressure Humidity
    00:00 +34°C° 0 mm 2 mps 755 mmHg 36%
    01:00 +32°C° 0 mm 1 mps 755 mmHg 37%
    02:00 +32°C° 0 mm 1 mps 755 mmHg 39%
    03:00 +31°C° 0 mm 1 mps 755 mmHg 40%
    04:00 +32°C° 0 mm 1 mps 755 mmHg 38%
    05:00 +32°C° 0 mm 2 mps 755 mmHg 37%
    06:00 +32°C° 0 mm 2 mps 756 mmHg 35%
    07:00 +34°C° 0 mm 2 mps 756 mmHg 33%
    08:00 +36°C° 0 mm 2 mps 756 mmHg 30%
    09:00 +36°C° 0 mm 1 mps 757 mmHg 28%
    10:00 +38°C° 0 mm 2 mps 757 mmHg 25%
    11:00 +39°C° 0 mm 2 mps 756 mmHg 23%
    12:00 +40°C° 0 mm 2 mps 756 mmHg 20%
    13:00 +40°C° 0 mm 3 mps 755 mmHg 20%
    14:00 +40°C° 0 mm 3 mps 755 mmHg 20%
    15:00 +40°C° 0 mm 3 mps 754 mmHg 19%
    16:00 +39°C° 0 mm 3 mps 754 mmHg 21%
    17:00 +38°C° 0 mm 3 mps 754 mmHg 23%
    18:00 +37°C° 0 mm 4 mps 754 mmHg 25%
    19:00 +36°C° 0 mm 3 mps 755 mmHg 26%
    20:00 +35°C° 0 mm 3 mps 755 mmHg 27%
    21:00 +35°C° 0 mm 3 mps 755 mmHg 28%
    22:00 +34°C° 0 mm 3 mps 755 mmHg 28%
    23:00 +34°C° 0 mm 3 mps 755 mmHg 28%

    26 May, Sunday

    Time Temperature Precipitation Wind Pressure Humidity
    00:00 +34°C° 0 mm 3 mps 754 mmHg 28%
    01:00 +34°C° 0 mm 3 mps 754 mmHg 29%
    02:00 +33°C° 0 mm 3 mps 754 mmHg 30%
    03:00 +33°C° 0 mm 3 mps 754 mmHg 31%
    04:00 +33°C° 0 mm 3 mps 754 mmHg 32%
    05:00 +32°C° 0 mm 2 mps 754 mmHg 33%
    06:00 +32°C° 0 mm 1 mps 755 mmHg 34%
    07:00 +35°C° 0 mm 2 mps 755 mmHg 31%
    08:00 +36°C° 0 mm 2 mps 755 mmHg 29%
    09:00 +37°C° 0 mm 2 mps 755 mmHg 26%
    10:00 +38°C° 0 mm 2 mps 755 mmHg 25%
    11:00 +39°C° 0 mm 2 mps 755 mmHg 23%
    12:00 +40°C° 0 mm 2 mps 754 mmHg 22%
    13:00 +41°C° 0 mm 2 mps 754 mmHg 21%
    14:00 +41°C° 0 mm 2 mps 754 mmHg 20%
    15:00 +43°C° 0 mm 3 mps 753 mmHg 19%
    16:00 +40°C° 0 mm 3 mps 753 mmHg 22%
    17:00 +40°C° 0 mm 4 mps 754 mmHg 24%
    18:00 +38°C° 0 mm 4 mps 754 mmHg 26%
    19:00 +37°C° 0 mm 4 mps 754 mmHg 28%
    20:00 +36°C° 0 mm 3 mps 754 mmHg 30%
    21:00 +36°C° 0 mm 2 mps 754 mmHg 32%
    22:00 +35°C° 0 mm 3 mps 754 mmHg 32%
    23:00 +35°C° 0 mm 3 mps 754 mmHg 32%

    27 May, Monday

    Time Temperature Precipitation Wind Pressure Humidity
    00:00 +34°C° 0 mm 3 mps 753 mmHg 31%
    01:00 +34°C° 0 mm 3 mps 753 mmHg 34%
    02:00 +33°C° 0 mm 3 mps 753 mmHg 36%
    03:00 +33°C° 0 mm 3 mps 753 mmHg 38%
    04:00 +32°C° 0 mm 2 mps 753 mmHg 38%
    05:00 +32°C° 0 mm 1 mps 754 mmHg 38%
    06:00 +32°C° 0 mm 1 mps 754 mmHg 38%
    07:00 +34°C° 0 mm 1 mps 754 mmHg 36%
    08:00 +35°C° 0 mm 1 mps 754 mmHg 33%
    09:00 +36°C° 0 mm 1 mps 755 mmHg 31%
    10:00 +37°C° 0 mm 1 mps 754 mmHg 28%
    11:00 +40°C° 0 mm 1 mps 754 mmHg 25%
    12:00 +41°C° 0 mm 1 mps 754 mmHg 22%
    13:00 +41°C° 0 mm 2 mps 753 mmHg 20%
    14:00 +43°C° 0 mm 3 mps 753 mmHg 19%
    15:00 +43°C° 0 mm 3 mps 753 mmHg 18%
    16:00 +42°C° 0 mm 3 mps 753 mmHg 19%
    17:00 +40°C° 0 mm 3 mps 753 mmHg 20%
    18:00 +39°C° 0 mm 3 mps 753 mmHg 21%
    19:00 +38°C° 0 mm 3 mps 753 mmHg 24%
    20:00 +37°C° 0 mm 3 mps 754 mmHg 27%
    21:00 +36°C° 0 mm 3 mps 754 mmHg 30%
    22:00 +36°C° 0 mm 3 mps 754 mmHg 31%
    23:00 +35°C° 0 mm 2 mps 753 mmHg 32%
    Show more